This demonstration page uses our WeatherBlox Daily Observations layout. Learn more.

Left ArrowRight Arrow

30.21309, -93.2044

Hourly Observations for June 22, 2019

Temp ( °F °C ) Dew Point ( °F °C ) Humidity (%) Winds ( mph kmh ) Pressure ( in mb ) Visibility ( mi km ) Precip ( " mm )
12:15 am 00:15 Partly Cloudy 82 28 80 26.5 92 92 S 8 13 29.97 1015 10 16 0.00 0.00
12:35 am 00:35 Partly Cloudy 82 28 80 26.5 92 92 S 8 13 29.97 1015 10 16 0.00 0.00
12:55 am 00:55 Partly Cloudy 82 28 80 26.5 92 92 S 7 11 29.97 1015 10 16 0.00 0.00
1:15 am 01:15 Partly Cloudy 82 28 79 26.3 91 91 SSE 8 13 29.97 1015 10 16 0.00 0.00
1:35 am 01:35 Mostly Cloudy 82 27.9 79 26.2 91 91 S 7 11 29.97 1015 10 16 0.00 0.00
1:55 am 01:55 Mostly Cloudy 82 27.8 79 26.1 90 90 SSE 7 11 29.96 1015 10 16 0.00 0.00
2:15 am 02:15 Partly Cloudy 82 27.7 79 26 90 90 SSE 7 11 29.96 1015 10 16 0.00 0.00
2:35 am 02:35 Clear 82 27.7 78 25.8 89 89 S 9 15 29.96 1015 10 16 0.00 0.00
2:55 am 02:55 Clear 82 27.8 78 25.8 89 89 S 8 13 29.96 1015 10 16 0.00 0.00
3:15 am 03:15 Partly Cloudy 82 27.7 78 25.7 89 89 S 9 15 29.97 1015 10 16 0.00 0.00
3:35 am 03:35 Clear 82 27.5 78 25.6 89 89 SSE 8 13 29.96 1015 10 16 0.00 0.00
3:55 am 03:55 Mostly Cloudy 82 27.5 78 25.5 89 89 SSE 8 13 29.96 1015 10 16 0.00 0.00
4:15 am 04:15 Partly Cloudy 81 27.4 78 25.5 89 89 SSE 8 13 29.96 1015 10 16 0.00 0.00
4:35 am 04:35 Partly Cloudy 81 27.3 77 25.2 88 88 SE 8 13 29.96 1015 10 16 0.00 0.00
4:55 am 04:55 Partly Cloudy 81 27 77 25.1 89 89 ESE 8 13 29.97 1015 10 16 0.00 0.00
5:15 am 05:15 Partly Cloudy 80 26.9 77 25.1 90 90 SE 8 13 29.97 1015 10 16 0.00 0.00
5:35 am 05:35 Clear 80 26.6 77 25 91 91 SE 8 13 29.97 1015 10 16 0.00 0.00
6:00 am 06:00 Mostly Cloudy 81 27 77 25 89 89 ESE 7 11 29.97 1015 10 16 0.00 0.00
6:45 am 06:45 Partly Cloudy 81 27 77 25 89 89 SE 8 13 29.99 1016 10 16 0.00 0.00
7:50 am 07:50 Mostly Cloudy 84 29 79 26 84 84 ESE 6 9 30.01 1016 10 16 0.00 0.00
8:50 am 08:50 Mostly Cloudy 88 31 77 25 70 70 S 13 20 30.03 1017 10 16 0.00 0.00
9:55 am 09:55 Mostly Cloudy 90 32 75 24 63 63 S 14 22 30.04 1017 10 16 0.00 0.00
10:45 am 10:45 Mostly Cloudy 86 30 75 24 70 70 S 15 24 30.04 1017 10 16 0.00 0.00
11:45 am 11:45 Mostly Cloudy 90 32 75 24 63 63 S 13 20 30.04 1017 10 16 0.00 0.00
12:55 pm 12:55 Mostly Cloudy 90 32 75 24 63 63 S 13 20 30.04 1017 10 16 0.00 0.00
1:55 pm 13:55 Mostly Cloudy 91 33 77 25 63 63 S 13 20 30.02 1017 10 16 0.00 0.00
2:50 pm 14:50 Mostly Cloudy 91 33 79 26 67 67 S 13 20 30.01 1016 10 16 0.00 0.00
3:50 pm 15:50 Mostly Cloudy 91 33 79 26 67 67 S 13 20 30.01 1016 10 16 0.00 0.00
4:50 pm 16:50 Mostly Cloudy 91 33 79 26 67 67 S 15 24 30.00 1016 10 16 0.00 0.00
5:50 pm 17:50 Mostly Cloudy 90 32 79 26 71 71 S 16 26 29.99 1016 10 16 0.00 0.00
6:50 pm 18:50 Mostly Cloudy 88 31 79 26 75 75 S 14 22 29.98 1015 10 16 0.00 0.00
7:50 pm 19:50 Mostly Cloudy 86 30 79 26 79 79 S 9 15 29.98 1015 10 16 0.00 0.00
8:50 pm 20:50 Mostly Cloudy 82 28 79 26 89 89 SSE 10 17 29.99 1016 10 16 0.00 0.00
9:55 pm 21:55 Mostly Cloudy 82 28 79 26 89 89 SE 10 17 29.99 1016 10 16 0.00 0.00
10:15 pm 22:15 Cloudy 82 27.7 78 25.7 89 89 SSE 8 13 29.99 1016 7 11 0.00 0.00
10:35 pm 22:35 Cloudy 82 27.5 78 25.7 90 90 SE 7 11 29.99 1016 7 11 0.00 0.00
10:55 pm 22:55 Partly Cloudy 81 27.3 78 25.6 90 90 SE 8 13 29.99 1016 10 16 0.00 0.00
11:15 pm 23:15 Clear 82 27.5 78 25.6 89 89 SE 8 13 30.00 1016 10 16 0.00 0.00
11:35 pm 23:35 Clear 81 27.3 78 25.6 90 90 SE 7 11 30.00 1016 10 16 0.00 0.00
11:55 pm 23:55 Partly Cloudy 81 27.2 78 25.5 90 90 SSE 8 13 30.01 1016 7 11 0.00 0.00

Powered by AerisWeather